Location: Pf�ffikon
(47.2015°N, 8.7809°E)
Time: 16:55:09
(UTC+00:00)

H-2A R/B - Pass Details

Date: 07 June 2020
Orbit: 577 x 656 km, 98.5° (Epoch: 08 July)

Event Time Altitude Azimuth Distance (km) Brightness Sun altitude
Rises 01:41:00 0° 136° (SE) 2,931 5.4 -13.5°
Reaches altitude 10° 01:43:23 10° 126° (SE) 2,037 4.7 -13.3°
Maximum altitude 01:47:15 30° 65° (ENE) 1,164 4.1 -12.9°
Drops below altitude 10° 01:51:12 10° 5° (N) 2,074 5.7 -12.5°
Sets 01:53:37 0° 355° (N) 2,994 6.4 -12.3°
